,,PressureMeas_1m,,PRMeasQMR101_1,,RHStat155_1m_1,,SRMeasQMS101R_1m,,TAStat155_1m_1,,GenWind_1,,GenWind_1,
2019-04-10, 00:00:06,VALID,918.593,VALID,0.0,VALID,98.195,VALID,-0.041,VALID,21.152,VALID,122.0,VALID,0.0,
2019-04-10, 00:01:06,VALID,918.577,VALID,0.0,VALID,98.194,VALID,-0.018,VALID,21.17,VALID,127.0,VALID,0.0,
2019-04-10, 00:02:06,VALID,918.552,VALID,0.0,VALID,98.273,VALID,-0.009,VALID,21.21,VALID,124.0,VALID,0.0,
2019-04-10, 00:03:06,VALID,918.535,VALID,0.0,VALID,98.253,VALID,-0.04,VALID,21.193,VALID,126.0,VALID,0.0,
2019-04-10, 00:04:06,VALID,918.523,VALID,0.0,VALID,98.225,VALID,-0.034,VALID,21.156,VALID,123.0,VALID,0.0,
2019-04-10, 00:05:06,VALID,918.526,VALID,0.0,VALID,98.234,VALID,-0.04,VALID,21.147,VALID,121.0,VALID,0.0,
2019-04-10, 00:06:06,VALID,918.513,VALID,0.0,VALID,98.223,VALID,-0.045,VALID,21.148,VALID,127.0,VALID,0.0,
2019-04-10, 00:07:06,VALID,918.52,VALID,0.0,VALID,98.23,VALID,-0.028,VALID,21.16,VALID,127.0,VALID,0.0,
2019-04-10, 00:08:06,VALID,918.524,VALID,0.0,VALID,98.158,VALID,-0.042,VALID,21.153,VALID,125.0,VALID,0.0,
2019-04-10, 00:09:06,VALID,918.521,VALID,0.0,VALID,98.14,VALID,-0.05,VALID,21.178,VALID,122.0,VALID,0.0,
2019-04-10, 00:10:06,VALID,918.527,VALID,0.0,VALID,98.143,VALID,-0.037,VALID,21.197,VALID,120.0,VALID,0.0,
2019-04-10, 00:11:06,VALID,918.522,VALID,0.0,VALID,98.064,VALID,-0.033,VALID,21.188,VALID,129.0,VALID,0.0,
2019-04-10, 00:12:06,VALID,918.53,VALID,0.0,VALID,98.033,VALID,-0.049,VALID,21.183,VALID,128.0,VALID,0.0,
2019-04-10, 00:13:06,VALID,918.518,VALID,0.0,VALID,98.038,VALID,-0.03,VALID,21.206,VALID,123.0,VALID,0.0,
2019-04-10, 00:14:06,VALID,918.515,VALID,0.0,VALID,98.019,VALID,-0.039,VALID,21.22,VALID,123.0,VALID,0.0,
2019-04-10, 00:15:06,VALID,918.508,VALID,0.0,VALID,98.021,VALID,-0.0,VALID,21.244,VALID,130.0,VALID,0.0,
2019-04-10, 00:16:06,VALID,918.521,VALID,0.0,VALID,98.075,VALID,0.006,VALID,21.3,VALID,129.0,VALID,0.0,
2019-04-10, 00:17:06,VALID,918.507,VALID,0.0,VALID,98.079,VALID,0.0,VALID,21.316,VALID,95.0,VALID,0.0,
2019-04-10, 00:18:06,VALID,918.491,VALID,0.0,VALID,97.929,VALID,0.011,VALID,21.274,VALID,80.0,VALID,0.0,
2019-04-10, 00:19:06,VALID,918.484,VALID,0.0,VALID,97.816,VALID,-0.003,VALID,21.241,INVALID,360.0,VALID,0.0,
2019-04-10, 00:20:06,VALID,918.477,VALID,0.0,VALID,97.869,VALID,0.009,VALID,21.258,INVALID,360.0,VALID,0.0,
2019-04-10, 00:21:06,VALID,918.482,VALID,0.0,VALID,97.895,VALID,0.001,VALID,21.258,INVALID,360.0,VALID,0.0,
2019-04-10, 00:22:06,VALID,918.443,VALID,0.0,VALID,97.972,VALID,0.013,VALID,21.25,VALID,275.0,VALID,0.0,
2019-04-10, 00:23:06,VALID,918.424,VALID,0.0,VALID,98.016,VALID,0.021,VALID,21.224,VALID,259.0,VALID,0.0,
2019-04-10, 00:24:06,VALID,918.407,VALID,0.0,VALID,98.07,VALID,0.015,VALID,21.189,VALID,258.0,VALID,0.0,
2019-04-10, 00:25:06,VALID,918.386,VALID,0.0,VALID,98.173,VALID,0.016,VALID,21.18,INVALID,360.0,VALID,0.0,
2019-04-10, 00:26:06,VALID,918.353,VALID,0.0,VALID,98.243,VALID,0.01,VALID,21.163,INVALID,360.0,VALID,0.0,
2019-04-10, 00:27:06,VALID,918.347,VALID,0.0,VALID,98.314,VALID,0.019,VALID,21.161,INVALID,360.0,VALID,0.0,
2019-04-10, 00:28:06,VALID,918.337,VALID,0.0,VALID,98.341,VALID,0.018,VALID,21.142,INVALID,360.0,VALID,0.0,
2019-04-10, 00:29:06,VALID,918.322,VALID,0.0,VALID,98.413,VALID,-0.011,VALID,21.141,INVALID,360.0,VALID,0.0,
2019-04-10, 00:30:06,VALID,918.323,VALID,0.0,VALID,98.409,VALID,-0.03,VALID,21.111,VALID,128.0,VALID,0.0,
2019-04-10, 00:31:06,VALID,918.314,VALID,0.0,VALID,98.407,VALID,-0.032,VALID,21.068,VALID,128.0,VALID,0.0,
2019-04-10, 00:32:06,VALID,918.308,VALID,0.0,VALID,98.415,VALID,-0.037,VALID,21.028,VALID,120.0,VALID,0.0,
2019-04-10, 00:33:06,VALID,918.291,VALID,0.0,VALID,98.438,VALID,-0.044,VALID,21.0,VALID,91.0,VALID,0.0,
2019-04-10, 00:34:06,VALID,918.265,VALID,0.0,VALID,98.427,VALID,-0.038,VALID,20.983,VALID,87.0,VALID,0.0,
2019-04-10, 00:35:06,VALID,918.253,VALID,0.0,VALID,98.457,VALID,-0.041,VALID,20.969,VALID,78.0,VALID,0.0,
2019-04-10, 00:36:06,VALID,918.25,VALID,0.0,VALID,98.484,VALID,-0.045,VALID,20.946,VALID,76.0,VALID,0.0,
2019-04-10, 00:37:06,VALID,918.242,VALID,0.0,VALID,98.49,VALID,-0.042,VALID,20.924,VALID,70.0,VALID,0.0,
2019-04-10, 00:38:06,VALID,918.248,VALID,0.0,VALID,98.531,VALID,-0.044,VALID,20.916,VALID,67.0,VALID,0.0,
2019-04-10, 00:39:06,VALID,918.259,VALID,0.0,VALID,98.546,VALID,-0.038,VALID,20.911,VALID,64.0,VALID,0.0,
2019-04-10, 00:40:06,VALID,918.261,VALID,0.0,VALID,98.557,VALID,-0.037,VALID,20.898,VALID,59.0,VALID,0.0,
2019-04-10, 00:41:06,VALID,918.257,VALID,0.0,VALID,98.577,VALID,-0.051,VALID,20.899,VALID,55.0,VALID,0.0,
2019-04-10, 00:42:06,VALID,918.264,VALID,0.0,VALID,98.598,VALID,-0.06,VALID,20.89,VALID,55.0,VALID,0.0,
2019-04-10, 00:43:06,VALID,918.277,VALID,0.0,VALID,98.601,VALID,-0.053,VALID,20.872,VALID,55.0,VALID,0.0,
2019-04-10, 00:44:06,VALID,918.277,VALID,0.0,VALID,98.61,VALID,-0.056,VALID,20.86,VALID,57.0,VALID,0.0,
2019-04-10, 00:45:06,VALID,918.259,VALID,0.0,VALID,98.605,VALID,-0.061,VALID,20.857,VALID,65.0,VALID,0.0,
2019-04-10, 00:46:06,VALID,918.249,VALID,0.0,VALID,98.581,VALID,-0.067,VALID,20.838,VALID,73.0,VALID,0.0,
2019-04-10, 00:47:06,VALID,918.258,VALID,0.0,VALID,98.588,VALID,-0.065,VALID,20.825,VALID,86.0,VALID,0.0,
2019-04-10, 00:48:06,VALID,918.213,VALID,0.0,VALID,98.563,VALID,-0.069,VALID,20.811,VALID,88.0,VALID,0.0,
2019-04-10, 00:49:06,VALID,918.212,VALID,0.0,VALID,98.556,VALID,-0.068,VALID,20.819,VALID,91.0,VALID,0.0,
2019-04-10, 00:50:06,VALID,918.195,VALID,0.0,VALID,98.584,VALID,-0.062,VALID,20.831,VALID,95.0,VALID,0.0,
2019-04-10, 00:51:06,VALID,918.196,VALID,0.0,VALID,98.578,VALID,-0.053,VALID,20.829,VALID,98.0,VALID,0.0,
2019-04-10, 00:52:06,VALID,918.159,VALID,0.0,VALID,98.564,VALID,-0.046,VALID,20.821,VALID,104.0,VALID,0.0,
2019-04-10, 00:53:06,VALID,918.185,VALID,0.0,VALID,98.584,VALID,-0.057,VALID,20.812,VALID,104.0,VALID,0.0,
2019-04-10, 00:54:06,VALID,918.167,VALID,0.0,VALID,98.578,VALID,-0.057,VALID,20.819,VALID,101.0,VALID,0.0,
2019-04-10, 00:55:06,VALID,918.173,VALID,0.0,VALID,98.607,VALID,-0.055,VALID,20.816,VALID,97.0,VALID,0.0,
2019-04-10, 00:56:06,VALID,918.147,VALID,0.0,VALID,98.627,VALID,-0.056,VALID,20.823,VALID,96.0,VALID,0.0,
2019-04-10, 00:57:06,VALID,918.122,VALID,0.0,VALID,98.64,VALID,-0.061,VALID,20.818,VALID,93.0,VALID,0.0,
2019-04-10, 00:58:06,VALID,918.105,VALID,0.0,VALID,98.647,VALID,-0.06,VALID,20.823,VALID,94.0,VALID,0.0,
2019-04-10, 00:59:06,VALID,918.071,VALID,0.0,VALID,98.674,VALID,-0.03,VALID,20.816,VALID,96.0,VALID,0.0,
2019-04-10, 01:00:06,VALID,918.07,VALID,0.0,VALID,98.718,VALID,0.038,VALID,20.818,VALID,97.0,VALID,0.0,
2019-04-10, 01:01:06,VALID,918.07,VALID,0.0,VALID,98.754,VALID,0.019,VALID,20.832,VALID,107.0,VALID,0.0,
2019-04-10, 01:02:06,VALID,918.061,VALID,0.0,VALID,98.768,VALID,-0.004,VALID,20.826,VALID,114.0,VALID,0.0,
2019-04-10, 01:03:06,VALID,918.059,VALID,0.0,VALID,98.816,VALID,0.013,VALID,20.847,VALID,109.0,VALID,0.0,
2019-04-10, 01:04:06,VALID,918.035,VALID,0.0,VALID,98.846,VALID,0.016,VALID,20.859,VALID,108.0,VALID,0.0,
2019-04-10, 01:05:06,VALID,918.015,VALID,0.0,VALID,98.869,VALID,0.024,VALID,20.858,VALID,115.0,VALID,0.0,
2019-04-10, 01:06:06,VALID,917.987,VALID,0.0,VALID,98.904,VALID,0.016,VALID,20.86,VALID,106.0,VALID,0.0,
2019-04-10, 01:07:06,VALID,917.966,VALID,0.0,VALID,98.924,VALID,0.019,VALID,20.861,VALID,101.0,VALID,0.0,
2019-04-10, 01:08:06,VALID,917.938,VALID,0.0,VALID,98.916,VALID,0.018,VALID,20.853,VALID,104.0,VALID,0.0,
2019-04-10, 01:09:06,VALID,917.903,VALID,0.0,VALID,98.959,VALID,0.026,VALID,20.856,VALID,100.0,VALID,0.0,
2019-04-10, 01:10:06,VALID,917.871,VALID,0.0,VALID,98.962,VALID,0.005,VALID,20.843,VALID,104.0,VALID,0.0,
2019-04-10, 01:11:06,VALID,917.83,VALID,0.0,VALID,98.967,VALID,0.005,VALID,20.817,VALID,100.0,VALID,0.0,
2019-04-10, 01:12:06,VALID,917.777,VALID,0.0,VALID,98.989,VALID,0.016,VALID,20.807,VALID,85.0,VALID,0.0,
2019-04-10, 01:13:06,VALID,917.724,VALID,0.0,VALID,99.004,VALID,0.013,VALID,20.788,VALID,92.0,VALID,0.0,
2019-04-10, 01:14:06,VALID,917.706,VALID,0.0,VALID,98.984,VALID,0.005,VALID,20.769,VALID,98.0,VALID,0.0,
2019-04-10, 01:15:06,VALID,917.665,VALID,0.0,VALID,99.02,VALID,-0.028,VALID,20.765,VALID,101.0,VALID,0.0,
2019-04-10, 01:16:06,VALID,917.631,VALID,0.0,VALID,99.025,VALID,-0.031,VALID,20.775,VALID,103.0,VALID,0.0,
2019-04-10, 01:17:06,VALID,917.588,VALID,0.0,VALID,99.05,VALID,-0.028,VALID,20.776,VALID,105.0,VALID,0.0,
2019-04-10, 01:18:06,VALID,917.556,VALID,0.0,VALID,99.065,VALID,-0.031,VALID,20.775,VALID,100.0,VALID,0.0,
2019-04-10, 01:19:06,VALID,917.539,VALID,0.0,VALID,99.061,VALID,-0.039,VALID,20.781,VALID,93.0,VALID,0.0,
2019-04-10, 01:20:06,VALID,917.499,VALID,0.0,VALID,99.058,VALID,-0.043,VALID,20.761,VALID,82.0,VALID,0.0,
2019-04-10, 01:21:06,VALID,917.474,VALID,0.0,VALID,99.099,VALID,-0.047,VALID,20.761,VALID,78.0,VALID,0.0,
2019-04-10, 01:22:06,VALID,917.471,VALID,0.0,VALID,99.078,VALID,-0.033,VALID,20.752,VALID,86.0,VALID,0.0,
2019-04-10, 01:23:06,VALID,917.47,VALID,0.0,VALID,99.067,VALID,-0.028,VALID,20.74,VALID,93.0,VALID,0.0,
2019-04-10, 01:24:06,VALID,917.453,VALID,0.0,VALID,99.105,VALID,-0.029,VALID,20.753,VALID,92.0,VALID,0.0,
2019-04-10, 01:25:06,VALID,917.449,VALID,0.0,VALID,99.11,VALID,-0.046,VALID,20.762,VALID,92.0,VALID,0.0,
2019-04-10, 01:26:06,VALID,917.464,VALID,0.0,VALID,99.086,VALID,-0.054,VALID,20.761,VALID,91.0,VALID,0.0,
2019-04-10, 01:27:06,VALID,917.466,VALID,0.0,VALID,99.045,VALID,-0.027,VALID,20.757,VALID,91.0,VALID,0.0,
2019-04-10, 01:28:06,VALID,917.474,VALID,0.0,VALID,99.025,VALID,-0.033,VALID,20.752,VALID,95.0,VALID,0.0,
2019-04-10, 01:29:06,VALID,917.481,VALID,0.0,VALID,99.006,VALID,-0.013,VALID,20.753,VALID,98.0,VALID,0.0,
2019-04-10, 01:30:06,VALID,917.474,VALID,0.0,VALID,98.983,VALID,0.045,VALID,20.752,VALID,108.0,VALID,0.0,
2019-04-10, 01:31:06,VALID,917.485,VALID,0.0,VALID,98.97,VALID,0.048,VALID,20.749,VALID,107.0,VALID,0.0,
2019-04-10, 01:32:06,VALID,917.49,VALID,0.0,VALID,98.971,VALID,0.05,VALID,20.761,VALID,114.0,VALID,0.0,
2019-04-10, 01:33:06,VALID,917.502,VALID,0.0,VALID,98.98,VALID,0.054,VALID,20.772,VALID,120.0,VALID,0.0,
2019-04-10, 01:34:06,VALID,917.492,VALID,0.0,VALID,98.973,VALID,0.042,VALID,20.782,VALID,124.0,VALID,0.0,
2019-04-10, 01:35:06,VALID,917.506,VALID,0.0,VALID,98.977,VALID,0.063,VALID,20.796,VALID,130.0,VALID,0.0,
2019-04-10, 01:36:06,VALID,917.519,VALID,0.0,VALID,98.995,VALID,0.038,VALID,20.815,VALID,129.0,VALID,0.0,
2019-04-10, 01:37:06,VALID,917.502,VALID,0.0,VALID,98.995,VALID,0.062,VALID,20.842,VALID,129.0,VALID,0.0,
2019-04-10, 01:38:06,VALID,917.463,VALID,0.0,VALID,98.984,VALID,0.061,VALID,20.849,VALID,131.0,VALID,0.0,
2019-04-10, 01:39:06,VALID,917.47,VALID,0.0,VALID,98.974,VALID,0.052,VALID,20.857,VALID,125.0,VALID,0.0,
2019-04-10, 01:40:06,VALID,917.45,VALID,0.0,VALID,98.95,VALID,0.053,VALID,20.842,VALID,122.0,VALID,0.0,
2019-04-10, 01:41:06,VALID,917.441,VALID,0.0,VALID,98.93,VALID,0.049,VALID,20.814,VALID,116.0,VALID,0.0,
2019-04-10, 01:42:06,VALID,917.411,VALID,0.0,VALID,98.953,VALID,0.056,VALID,20.813,VALID,124.0,VALID,0.0,
2019-04-10, 01:43:06,VALID,917.401,VALID,0.0,VALID,98.954,VALID,0.049,VALID,20.817,VALID,121.0,VALID,0.0,
2019-04-10, 01:44:06,VALID,917.395,VALID,0.0,VALID,98.959,VALID,0.023,VALID,20.821,VALID,120.0,VALID,0.0,
2019-04-10, 01:45:06,VALID,917.381,VALID,0.0,VALID,98.937,VALID,-0.017,VALID,20.813,VALID,117.0,VALID,0.0,
2019-04-10, 01:46:06,VALID,917.39,VALID,0.0,VALID,98.935,VALID,-0.004,VALID,20.815,VALID,109.0,VALID,0.0,
2019-04-10, 01:47:06,VALID,917.388,VALID,0.0,VALID,98.938,VALID,-0.005,VALID,20.815,VALID,103.0,VALID,0.0,
2019-04-10, 01:48:06,VALID,917.384,VALID,0.0,VALID,98.942,VALID,-0.017,VALID,20.816,VALID,103.0,VALID,0.0,
2019-04-10, 01:49:06,VALID,917.355,VALID,0.0,VALID,98.93,VALID,-0.015,VALID,20.818,VALID,104.0,VALID,0.0,
2019-04-10, 01:50:06,VALID,917.348,VALID,0.0,VALID,98.928,VALID,-0.003,VALID,20.814,VALID,101.0,VALID,0.0,
2019-04-10, 01:51:06,VALID,917.327,VALID,0.0,VALID,98.93,VALID,-0.013,VALID,20.812,VALID,100.0,VALID,0.0,
2019-04-10, 01:52:06,VALID,917.303,VALID,0.0,VALID,98.897,VALID,-0.014,VALID,20.8,VALID,102.0,VALID,0.0,
2019-04-10, 01:53:06,VALID,917.292,VALID,0.0,VALID,98.901,VALID,-0.019,VALID,20.791,VALID,96.0,VALID,0.0,
2019-04-10, 01:54:06,VALID,917.292,VALID,0.0,VALID,98.91,VALID,-0.006,VALID,20.797,VALID,76.0,VALID,0.0,
2019-04-10, 01:55:06,VALID,917.286,VALID,0.0,VALID,98.921,VALID,-0.007,VALID,20.813,VALID,68.0,VALID,0.0,
2019-04-10, 01:56:06,VALID,917.29,VALID,0.0,VALID,98.891,VALID,-0.017,VALID,20.823,VALID,59.0,VALID,0.0,
2019-04-10, 01:57:06,VALID,917.299,VALID,0.0,VALID,98.876,VALID,-0.015,VALID,20.83,VALID,66.0,VALID,0.0,
2019-04-10, 01:58:06,VALID,917.317,VALID,0.0,VALID,98.87,VALID,0.002,VALID,20.87,VALID,67.0,VALID,0.0,
2019-04-10, 01:59:06,VALID,917.328,VALID,0.0,VALID,98.821,VALID,-0.007,VALID,20.865,VALID,60.0,VALID,0.0,
2019-04-10, 02:00:06,VALID,917.313,VALID,0.0,VALID,98.796,VALID,0.01,VALID,20.87,VALID,42.0,VALID,0.0,
2019-04-10, 02:01:06,VALID,917.302,VALID,0.0,VALID,98.784,VALID,0.002,VALID,20.898,VALID,15.0,VALID,0.0,
2019-04-10, 02:02:06,VALID,917.301,VALID,0.0,VALID,98.734,VALID,-0.002,VALID,20.904,VALID,15.0,VALID,0.0,
2019-04-10, 02:03:06,VALID,917.268,VALID,0.0,VALID,98.68,VALID,-0.005,VALID,20.883,VALID,15.0,VALID,0.0,
2019-04-10, 02:04:06,VALID,917.268,VALID,0.0,VALID,98.669,VALID,-0.014,VALID,20.874,VALID,15.0,VALID,0.0,
2019-04-10, 02:05:06,VALID,917.253,VALID,0.0,VALID,98.674,VALID,-0.007,VALID,20.874,VALID,15.0,VALID,0.0,
2019-04-10, 02:06:06,VALID,917.242,VALID,0.0,VALID,98.663,VALID,0.005,VALID,20.887,VALID,15.0,VALID,0.0,
2019-04-10, 02:07:06,VALID,917.235,VALID,0.0,VALID,98.687,VALID,-0.016,VALID,20.899,VALID,15.0,VALID,0.0,
2019-04-10, 02:08:06,VALID,917.236,VALID,0.0,VALID,98.709,VALID,-0.012,VALID,20.914,VALID,15.0,VALID,0.0,
2019-04-10, 02:09:06,VALID,917.214,VALID,0.0,VALID,98.659,VALID,0.0,VALID,20.899,VALID,15.0,VALID,0.0,
2019-04-10, 02:10:06,VALID,917.225,VALID,0.0,VALID,98.67,VALID,-0.016,VALID,20.893,VALID,15.0,VALID,0.0,
2019-04-10, 02:11:06,VALID,917.219,VALID,0.0,VALID,98.664,VALID,0.007,VALID,20.894,VALID,14.0,VALID,0.0,
2019-04-10, 02:12:06,VALID,917.235,VALID,0.0,VALID,98.691,VALID,0.005,VALID,20.894,VALID,14.0,VALID,0.0,
2019-04-10, 02:13:06,VALID,917.235,VALID,0.0,VALID,98.698,VALID,-0.017,VALID,20.89,VALID,324.0,VALID,0.0,
2019-04-10, 02:14:06,VALID,917.238,VALID,0.0,VALID,98.685,VALID,0.018,VALID,20.88,VALID,322.0,VALID,0.0,
2019-04-10, 02:15:06,VALID,917.245,VALID,0.0,VALID,98.745,VALID,0.046,VALID,20.906,VALID,322.0,VALID,0.0,
2019-04-10, 02:16:06,VALID,917.24,VALID,0.0,VALID,98.75,VALID,0.057,VALID,20.905,VALID,322.0,VALID,0.0,
2019-04-10, 02:17:06,VALID,917.238,VALID,0.0,VALID,98.723,VALID,0.061,VALID,20.874,VALID,322.0,VALID,0.0,
2019-04-10, 02:18:06,VALID,917.236,VALID,0.0,VALID,98.742,VALID,0.067,VALID,20.865,INVALID,360.0,VALID,0.0,
2019-04-10, 02:19:06,VALID,917.216,VALID,0.0,VALID,98.745,VALID,0.061,VALID,20.848,INVALID,360.0,VALID,0.0,
2019-04-10, 02:20:06,VALID,917.206,VALID,0.0,VALID,98.76,VALID,0.057,VALID,20.844,INVALID,360.0,VALID,0.0,
2019-04-10, 02:21:06,VALID,917.212,VALID,0.0,VALID,98.791,VALID,0.05,VALID,20.834,INVALID,360.0,VALID,0.0,
2019-04-10, 02:22:06,VALID,917.213,VALID,0.0,VALID,98.762,VALID,0.062,VALID,20.807,INVALID,360.0,VALID,0.0,
2019-04-10, 02:23:06,VALID,917.184,VALID,0.0,VALID,98.833,VALID,0.055,VALID,20.826,INVALID,360.0,VALID,0.0,
2019-04-10, 02:24:06,VALID,917.17,VALID,0.0,VALID,98.832,VALID,0.058,VALID,20.819,INVALID,360.0,VALID,0.0,
2019-04-10, 02:25:06,VALID,917.15,VALID,0.0,VALID,98.809,VALID,0.051,VALID,20.797,INVALID,360.0,VALID,0.0,
2019-04-10, 02:26:06,VALID,917.145,VALID,0.0,VALID,98.834,VALID,0.07,VALID,20.794,INVALID,360.0,VALID,0.0,
2019-04-10, 02:27:06,VALID,917.152,VALID,0.0,VALID,98.868,VALID,0.059,VALID,20.804,INVALID,360.0,VALID,0.0,
2019-04-10, 02:28:06,VALID,917.141,VALID,0.0,VALID,98.817,VALID,0.058,VALID,20.778,INVALID,360.0,VALID,0.0,
2019-04-10, 02:29:06,VALID,917.126,VALID,0.0,VALID,98.831,VALID,0.046,VALID,20.781,INVALID,360.0,VALID,0.0,
2019-04-10, 02:30:06,VALID,917.118,VALID,0.0,VALID,98.872,VALID,0.007,VALID,20.802,INVALID,360.0,VALID,0.0,
2019-04-10, 02:31:06,VALID,917.106,VALID,0.0,VALID,98.883,VALID,0.012,VALID,20.82,INVALID,360.0,VALID,0.0,
2019-04-10, 02:32:06,VALID,917.09,VALID,0.0,VALID,98.863,VALID,0.027,VALID,20.819,INVALID,360.0,VALID,0.0,
2019-04-10, 02:33:06,VALID,917.082,VALID,0.0,VALID,98.883,VALID,0.028,VALID,20.818,INVALID,360.0,VALID,0.0,
2019-04-10, 02:34:06,VALID,917.072,VALID,0.0,VALID,98.904,VALID,0.018,VALID,20.833,INVALID,360.0,VALID,0.0,
2019-04-10, 02:35:06,VALID,917.066,VALID,0.0,VALID,98.892,VALID,0.021,VALID,20.844,INVALID,360.0,VALID,0.0,
2019-04-10, 02:36:06,VALID,917.093,VALID,0.0,VALID,98.892,VALID,0.001,VALID,20.875,INVALID,360.0,VALID,0.0,
2019-04-10, 02:37:06,VALID,917.081,VALID,0.0,VALID,98.912,VALID,0.01,VALID,20.905,INVALID,360.0,VALID,0.0,
2019-04-10, 02:38:06,VALID,917.092,VALID,0.0,VALID,98.883,VALID,0.009,VALID,20.894,INVALID,360.0,VALID,0.0,
2019-04-10, 02:39:06,VALID,917.082,VALID,0.0,VALID,98.876,VALID,-0.001,VALID,20.879,INVALID,360.0,VALID,0.0,
2019-04-10, 02:40:06,VALID,917.08,VALID,0.0,VALID,98.839,VALID,0.01,VALID,20.866,INVALID,360.0,VALID,0.0,
2019-04-10, 02:41:06,VALID,917.07,VALID,0.0,VALID,98.842,VALID,0.017,VALID,20.903,INVALID,360.0,VALID,0.0,
2019-04-10, 02:42:06,VALID,917.074,VALID,0.0,VALID,98.83,VALID,0.008,VALID,20.894,INVALID,360.0,VALID,0.0,
2019-04-10, 02:43:06,VALID,917.053,VALID,0.0,VALID,98.769,VALID,0.009,VALID,20.863,INVALID,360.0,VALID,0.0,
2019-04-10, 02:44:06,VALID,917.038,VALID,0.0,VALID,98.755,VALID,0.007,VALID,20.847,INVALID,360.0,VALID,0.0,
2019-04-10, 02:45:06,VALID,917.04,VALID,0.0,VALID,98.707,VALID,0.002,VALID,20.816,INVALID,360.0,VALID,0.0,
2019-04-10, 02:46:06,VALID,917.039,VALID,0.0,VALID,98.669,VALID,0.012,VALID,20.784,INVALID,360.0,VALID,0.0,
2019-04-10, 02:47:06,VALID,917.024,VALID,0.0,VALID,98.608,VALID,0.011,VALID,20.722,VALID,65.0,VALID,0.0,
2019-04-10, 02:48:06,VALID,917.034,VALID,0.0,VALID,98.565,VALID,-0.002,VALID,20.689,VALID,62.0,VALID,0.0,
2019-04-10, 02:49:06,VALID,917.036,VALID,0.0,VALID,98.599,VALID,-0.007,VALID,20.693,VALID,62.0,VALID,0.0,
2019-04-10, 02:50:06,VALID,917.048,VALID,0.0,VALID,98.603,VALID,-0.002,VALID,20.688,VALID,62.0,VALID,0.0,
2019-04-10, 02:51:06,VALID,917.048,VALID,0.0,VALID,98.603,VALID,0.015,VALID,20.685,VALID,62.0,VALID,0.0,
2019-04-10, 02:52:06,VALID,917.064,VALID,0.0,VALID,98.631,VALID,0.015,VALID,20.696,VALID,62.0,VALID,0.0,
2019-04-10, 02:53:06,VALID,917.071,VALID,0.0,VALID,98.658,VALID,0.003,VALID,20.716,VALID,62.0,VALID,0.0,
2019-04-10, 02:54:06,VALID,917.069,VALID,0.0,VALID,98.648,VALID,-0.011,VALID,20.717,VALID,62.0,VALID,0.0,
2019-04-10, 02:55:06,VALID,917.057,VALID,0.0,VALID,98.662,VALID,0.007,VALID,20.729,VALID,62.0,VALID,0.0,
2019-04-10, 02:56:06,VALID,917.043,VALID,0.0,VALID,98.667,VALID,0.008,VALID,20.735,VALID,62.0,VALID,0.0,
2019-04-10, 02:57:06,VALID,917.022,VALID,0.0,VALID,98.652,VALID,-0.007,VALID,20.712,VALID,62.0,VALID,0.0,
2019-04-10, 02:58:06,VALID,917.042,VALID,0.0,VALID,98.659,VALID,0.017,VALID,20.715,VALID,62.0,VALID,0.0,
2019-04-10, 02:59:06,VALID,917.04,VALID,0.0,VALID,98.626,VALID,0.007,VALID,20.683,VALID,62.0,VALID,0.0,
2019-04-10, 03:00:06,VALID,917.053,VALID,0.0,VALID,98.598,VALID,0.033,VALID,20.651,VALID,62.0,VALID,0.0,
2019-04-10, 03:01:06,VALID,917.051,VALID,0.0,VALID,98.6,VALID,0.032,VALID,20.648,VALID,62.0,VALID,0.0,
2019-04-10, 03:02:06,VALID,917.042,VALID,0.0,VALID,98.604,VALID,0.025,VALID,20.64,VALID,62.0,VALID,0.0,
2019-04-10, 03:03:06,VALID,917.036,VALID,0.0,VALID,98.578,VALID,0.03,VALID,20.633,VALID,62.0,VALID,0.0,
2019-04-10, 03:04:06,VALID,917.018,VALID,0.0,VALID,98.577,VALID,0.035,VALID,20.615,VALID,62.0,VALID,0.0,
2019-04-10, 03:05:06,VALID,917.015,VALID,0.0,VALID,98.524,VALID,0.03,VALID,20.586,VALID,62.0,VALID,0.0,
2019-04-10, 03:06:06,VALID,916.991,VALID,0.0,VALID,98.568,VALID,0.008,VALID,20.601,VALID,62.0,VALID,0.0,
2019-04-10, 03:07:06,VALID,916.967,VALID,0.0,VALID,98.571,VALID,0.043,VALID,20.591,VALID,62.0,VALID,0.0,
2019-04-10, 03:08:06,VALID,916.942,VALID,0.0,VALID,98.554,VALID,0.027,VALID,20.566,VALID,62.0,VALID,0.0,
2019-04-10, 03:09:06,VALID,916.94,VALID,0.0,VALID,98.516,VALID,0.031,VALID,20.531,VALID,62.0,VALID,0.0,
2019-04-10, 03:10:06,VALID,916.944,VALID,0.0,VALID,98.514,VALID,0.03,VALID,20.505,VALID,62.0,VALID,0.0,
2019-04-10, 03:11:06,VALID,916.939,VALID,0.0,VALID,98.5,VALID,0.014,VALID,20.489,VALID,62.0,VALID,0.0,
2019-04-10, 03:12:06,VALID,916.921,VALID,0.0,VALID,98.495,VALID,0.021,VALID,20.489,VALID,62.0,VALID,0.0,
2019-04-10, 03:13:06,VALID,916.949,VALID,0.0,VALID,98.531,VALID,0.03,VALID,20.491,VALID,62.0,VALID,0.0,
2019-04-10, 03:14:06,VALID,916.955,VALID,0.0,VALID,98.485,VALID,0.028,VALID,20.449,VALID,62.0,VALID,0.0,
2019-04-10, 03:15:06,VALID,916.964,VALID,0.0,VALID,98.46,VALID,0.02,VALID,20.42,VALID,62.0,VALID,0.0,
2019-04-10, 03:16:06,VALID,916.968,VALID,0.0,VALID,98.494,VALID,0.008,VALID,20.428,VALID,62.0,VALID,0.0,
2019-04-10, 03:17:06,VALID,916.972,VALID,0.0,VALID,98.52,VALID,-0.003,VALID,20.447,VALID,62.0,VALID,0.0,
2019-04-10, 03:18:06,VALID,916.986,VALID,0.0,VALID,98.582,VALID,0.001,VALID,20.492,VALID,62.0,VALID,0.0,
2019-04-10, 03:19:06,VALID,916.979,VALID,0.0,VALID,98.605,VALID,0.005,VALID,20.48,VALID,62.0,VALID,0.0,
2019-04-10, 03:20:06,VALID,916.965,VALID,0.0,VALID,98.554,VALID,0.01,VALID,20.448,VALID,62.0,VALID,0.0,
2019-04-10, 03:21:06,VALID,916.973,VALID,0.0,VALID,98.596,VALID,0.017,VALID,20.455,VALID,62.0,VALID,0.0,
2019-04-10, 03:22:06,VALID,916.975,VALID,0.0,VALID,98.628,VALID,0.01,VALID,20.465,VALID,62.0,VALID,0.0,
2019-04-10, 03:23:06,VALID,916.972,VALID,0.0,VALID,98.708,VALID,0.006,VALID,20.495,INVALID,360.0,VALID,0.0,
2019-04-10, 03:24:06,VALID,916.975,VALID,0.0,VALID,98.718,VALID,0.008,VALID,20.524,INVALID,360.0,VALID,0.0,
2019-04-10, 03:25:06,VALID,916.955,VALID,0.0,VALID,98.706,VALID,0.023,VALID,20.524,VALID,120.0,VALID,0.0,
2019-04-10, 03:26:06,VALID,916.964,VALID,0.0,VALID,98.719,VALID,0.034,VALID,20.521,INVALID,360.0,VALID,0.0,
2019-04-10, 03:27:06,VALID,916.969,VALID,0.0,VALID,98.748,VALID,0.008,VALID,20.525,VALID,126.0,VALID,0.0,
2019-04-10, 03:28:06,VALID,916.954,VALID,0.0,VALID,98.766,VALID,0.022,VALID,20.547,VALID,131.0,VALID,0.0,
2019-04-10, 03:29:06,VALID,916.952,VALID,0.0,VALID,98.783,VALID,0.02,VALID,20.566,INVALID,360.0,VALID,0.0,
2019-04-10, 03:30:06,VALID,916.944,VALID,0.0,VALID,98.798,VALID,0.019,VALID,20.579,INVALID,360.0,VALID,0.0,
2019-04-10, 03:31:06,VALID,916.953,VALID,0.0,VALID,98.817,VALID,0.021,VALID,20.592,INVALID,360.0,VALID,0.0,
2019-04-10, 03:32:06,VALID,916.964,VALID,0.0,VALID,98.814,VALID,0.013,VALID,20.572,INVALID,360.0,VALID,0.0,
2019-04-10, 03:33:06,VALID,916.967,VALID,0.0,VALID,98.8,VALID,0.022,VALID,20.543,INVALID,360.0,VALID,0.0,
2019-04-10, 03:34:06,VALID,916.985,VALID,0.0,VALID,98.801,VALID,0.034,VALID,20.506,INVALID,360.0,VALID,0.0,
2019-04-10, 03:35:06,VALID,917.002,VALID,0.0,VALID,98.767,VALID,0.019,VALID,20.455,INVALID,360.0,VALID,0.0,
2019-04-10, 03:36:06,VALID,917.018,VALID,0.0,VALID,98.76,VALID,0.023,VALID,20.433,INVALID,360.0,VALID,0.0,
2019-04-10, 03:37:06,VALID,917.025,VALID,0.0,VALID,98.798,VALID,0.024,VALID,20.414,INVALID,360.0,VALID,0.0,
2019-04-10, 03:38:06,VALID,917.038,VALID,0.0,VALID,98.777,VALID,0.027,VALID,20.4,INVALID,360.0,VALID,0.0,
2019-04-10, 03:39:06,VALID,917.039,VALID,0.0,VALID,98.794,VALID,0.032,VALID,20.405,INVALID,360.0,VALID,0.0,
2019-04-10, 03:40:06,VALID,917.04,VALID,0.0,VALID,98.891,VALID,0.031,VALID,20.456,INVALID,360.0,VALID,0.0,
2019-04-10, 03:41:06,VALID,917.053,VALID,0.0,VALID,98.863,VALID,0.03,VALID,20.454,INVALID,360.0,VALID,0.0,
2019-04-10, 03:42:06,VALID,917.044,VALID,0.0,VALID,98.872,VALID,0.036,VALID,20.424,INVALID,360.0,VALID,0.0,